Location: Unspecified
(43.4354°N, 0.0000°E)
Time: 18:08:20
(UTC+00:00)

Courier 1B - Pass Details

Date: 24 June 2019
Orbit: 963 x 1209 km, 28.3° (Epoch: 18 July)

Event Time Altitude Azimuth Distance (km) Brightness Sun altitude
Rises 18:33:06 0° 236° (SW) 3,800 11.1 10.6°
Reaches altitude 10° 18:36:21 10° 222° (SW) 2,890 10.3 10.1°
Maximum altitude 18:41:42 23° 173° (S) 2,152 9.1 9.2°
Drops below altitude 10° 18:47:16 10° 124° (SE) 3,031 9.5 8.3°
Sets 18:50:46 0° 111° (ESE) 4,030 10.0 7.7°
